| time (UTC) | temp C | wind direction | speed KPH | gust KPH | rain 1hr cm | rain 24hr cm | rain mn cm | humidity % | barometer mb |
| 20260507195849 | 32 | 270 | 8.0 | 16.1 | 0.00 | 0.00 | 0.00 | 42 | 1011.8 |
| 20260507195343 | 32 | 242 | 9.7 | 19.3 | 0.00 | 0.00 | 0.00 | 43 | 1011.9 |
| 20260507194841 | 32 | 274 | 8.0 | 19.3 | 0.00 | 0.00 | 0.00 | 44 | 1012.1 |
| 20260507194341 | 33 | 271 | 6.4 | 16.1 | 0.00 | 0.00 | 0.00 | 41 | 1012.0 |
| 20260507193841 | 32 | 270 | 8.0 | 19.3 | 0.00 | 0.00 | 0.00 | 43 | 1012.1 |
| 20260507193341 | 32 | 275 | 8.0 | 19.3 | 0.00 | 0.00 | 0.00 | 42 | 1012.2 |
| 20260507192839 | 32 | 327 | 8.0 | 19.3 | 0.00 | 0.00 | 0.00 | 44 | 1012.1 |
| 20260507192335 | 32 | 242 | 8.0 | 19.3 | 0.00 | 0.00 | 0.00 | 45 | 1012.3 |
| 20260507191834 | 32 | 315 | 6.4 | 14.5 | 0.00 | 0.00 | 0.00 | 46 | 1012.3 |
| 20260507191331 | 32 | 250 | 8.0 | 17.7 | 0.00 | 0.00 | 0.00 | 45 | 1012.5 |
| 20260507190832 | 32 | 194 | 9.7 | 17.7 | 0.00 | 0.00 | 0.00 | 45 | 1012.6 |
| 20260507190328 | 32 | 278 | 9.7 | 17.7 | 0.00 | 0.00 | 0.00 | 44 | 1012.6 |
| 20260507185823 | 32 | 279 | 9.7 | 17.7 | 0.00 | 0.00 | 0.00 | 44 | 1012.8 |
| 20260507185321 | 32 | 325 | 8.0 | 16.1 | 0.00 | 0.00 | 0.00 | 44 | 1012.8 |
| 20260507184819 | 32 | 268 | 8.0 | 16.1 | 0.00 | 0.00 | 0.00 | 42 | 1013.0 |
| 20260507184319 | 32 | 283 | 8.0 | 16.1 | 0.00 | 0.00 | 0.00 | 44 | 1013.1 |
| 20260507183815 | 32 | 266 | 8.0 | 17.7 | 0.00 | 0.00 | 0.00 | 44 | 1013.1 |
| 20260507183543 | 32 | 287 | 9.7 | 17.7 | 0.00 | 0.00 | 0.00 | 46 | 1013.3 |
| 20260507182809 | 32 | 249 | 9.7 | 20.9 | 0.00 | 0.00 | 0.00 | 49 | 1013.3 |
| 20260507182307 | 32 | 271 | 9.7 | 20.9 | 0.00 | 0.00 | 0.00 | 48 | 1013.4 |
| 20260507181808 | 31 | 322 | 8.0 | 20.9 | 0.00 | 0.00 | 0.00 | 49 | 1013.4 |
| 20260507181304 | 31 | 284 | 8.0 | 17.7 | 0.00 | 0.00 | 0.00 | 49 | 1013.5 |
| 20260507181035 | 32 | 275 | 8.0 | 19.3 | 0.00 | 0.00 | 0.00 | 48 | 1013.5 |
| 20260507180302 | 31 | 278 | 8.0 | 19.3 | 0.00 | 0.00 | 0.00 | 48 | 1013.4 |
| 20260507175803 | 31 | 267 | 6.4 | 17.7 | 0.00 | 0.00 | 0.00 | 48 | 1013.5 |
| 20260507175306 | 31 | 287 | 8.0 | 17.7 | 0.00 | 0.00 | 0.00 | 52 | 1013.5 |
| 20260507174803 | 31 | 216 | 6.4 | 17.7 | 0.00 | 0.00 | 0.00 | 50 | 1013.5 |
| 20260507174306 | 31 | 283 | 9.7 | 19.3 | 0.00 | 0.00 | 0.00 | 50 | 1013.6 |
| 20260507174302 | 31 | 268 | 8.0 | 19.3 | 0.00 | 0.00 | 0.00 | 51 | 1013.5 |
| 20260507173254 | 31 | 263 | 8.0 | 19.3 | 0.00 | 0.00 | 0.00 | 53 | 1013.5 |
| 20260507172754 | 31 | 252 | 8.0 | 16.1 | 0.00 | 0.00 | 0.00 | 51 | 1013.5 |
| 20260507172246 | 31 | 270 | 8.0 | 16.1 | 0.00 | 0.00 | 0.00 | 51 | 1013.6 |
| 20260507171747 | 30 | 276 | 8.0 | 14.5 | 0.00 | 0.00 | 0.00 | 53 | 1013.7 |
| 20260507171246 | 30 | 248 | 8.0 | 16.1 | 0.00 | 0.00 | 0.00 | 53 | 1013.7 |
| 20260507170747 | 30 | 264 | 9.7 | 16.1 | 0.00 | 0.00 | 0.00 | 55 | 1013.8 |
| 20260507170246 | 30 | 248 | 8.0 | 14.5 | 0.00 | 0.00 | 0.00 | 57 | 1013.9 |
| 20260507165747 | 30 | 270 | 8.0 | 17.7 | 0.00 | 0.00 | 0.00 | 58 | 1013.8 |
| 20260507165246 | 30 | 300 | 8.0 | 17.7 | 0.00 | 0.00 | 0.00 | 57 | 1013.9 |
| 20260507164745 | 30 | 250 | 8.0 | 19.3 | 0.00 | 0.00 | 0.00 | 55 | 1014.0 |
| 20260507164244 | 30 | 277 | 8.0 | 20.9 | 0.00 | 0.00 | 0.00 | 57 | 1014.0 |
| 20260507163741 | 30 | 269 | 8.0 | 20.9 | 0.00 | 0.00 | 0.00 | 56 | 1014.1 |
| 20260507163240 | 30 | 309 | 6.4 | 17.7 | 0.00 | 0.00 | 0.00 | 57 | 1014.1 |
| 20260507162741 | 30 | 260 | 6.4 | 16.1 | 0.00 | 0.00 | 0.00 | 57 | 1014.1 |
| 20260507162240 | 30 | 269 | 8.0 | 17.7 | 0.00 | 0.00 | 0.00 | 58 | 1014.1 |
| 20260507161739 | 30 | 247 | 8.0 | 17.7 | 0.00 | 0.00 | 0.00 | 58 | 1014.3 |
| 20260507161238 | 30 | 204 | 8.0 | 16.1 | 0.00 | 0.00 | 0.00 | 60 | 1014.4 |
| 20260507160737 | 30 | 280 | 6.4 | 16.1 | 0.00 | 0.00 | 0.00 | 62 | 1014.4 |
| 20260507160236 | 30 | 275 | 6.4 | 16.1 | 0.00 | 0.00 | 0.00 | 61 | 1014.4 |
| 20260507155736 | 30 | 272 | 6.4 | 16.1 | 0.00 | 0.00 | 0.00 | 63 | 1014.5 |
| 20260507155508 | 30 | 272 | 6.4 | 16.1 | 0.00 | 0.00 | 0.00 | 62 | 1014.5 |
| 20260507154736 | 29 | 289 | 6.4 | 17.7 | 0.00 | 0.00 | 0.00 | 63 | 1014.5 |
| 20260507154234 | 29 | 286 | 6.4 | 17.7 | 0.00 | 0.00 | 0.00 | 62 | 1014.5 |
| 20260507153734 | 29 | 276 | 8.0 | 17.7 | 0.00 | 0.00 | 0.00 | 62 | 1014.6 |
| 20260507153234 | 29 | 249 | 6.4 | 17.7 | 0.00 | 0.00 | 0.00 | 63 | 1014.5 |
| 20260507152732 | 29 | 265 | 6.4 | 16.1 | 0.00 | 0.00 | 0.00 | 63 | 1014.6 |
| 20260507152504 | 29 | 259 | 6.4 | 16.1 | 0.00 | 0.00 | 0.00 | 63 | 1014.7 |
| 20260507151732 | 29 | 272 | 6.4 | 14.5 | 0.00 | 0.00 | 0.00 | 64 | 1014.6 |
| 20260507151232 | 28 | 270 | 4.8 | 11.3 | 0.00 | 0.00 | 0.00 | 63 | 1014.7 |
| 20260507150730 | 29 | 217 | 4.8 | 9.7 | 0.00 | 0.00 | 0.00 | 65 | 1014.7 |
| 20260507150230 | 28 | 265 | 6.4 | 14.5 | 0.00 | 0.00 | 0.00 | 65 | 1014.8 |
| 20260507145730 | 28 | 241 | 8.0 | 19.3 | 0.00 | 0.00 | 0.00 | 65 | 1014.8 |
| 20260507145230 | 28 | 155 | 8.0 | 19.3 | 0.00 | 0.00 | 0.00 | 64 | 1014.8 |
| 20260507144958 | 28 | 227 | 6.4 | 14.5 | 0.00 | 0.00 | 0.00 | 63 | 1014.8 |
| 20260507144223 | 28 | 240 | 6.4 | 11.3 | 0.00 | 0.00 | 0.00 | 63 | 1014.8 |
| 20260507143722 | 28 | 247 | 6.4 | 9.7 | 0.00 | 0.00 | 0.00 | 63 | 1014.8 |
| 20260507143454 | 28 | 265 | 6.4 | 16.1 | 0.00 | 0.00 | 0.00 | 64 | 1014.9 |
| 20260507142719 | 28 | 273 | 6.4 | 16.1 | 0.00 | 0.00 | 0.00 | 65 | 1014.8 |
| 20260507142216 | 28 | 261 | 6.4 | 14.5 | 0.00 | 0.00 | 0.00 | 66 | 1014.7 |
| 20260507141716 | 27 | 198 | 8.0 | 16.1 | 0.00 | 0.00 | 0.00 | 67 | 1014.8 |
| 20260507141210 | 27 | 155 | 6.4 | 16.1 | 0.00 | 0.00 | 0.00 | 67 | 1014.9 |
| 20260507140708 | 27 | 256 | 8.0 | 16.1 | 0.00 | 0.00 | 0.00 | 66 | 1014.9 |
| 20260507140206 | 27 | 204 | 8.0 | 16.1 | 0.00 | 0.00 | 0.00 | 68 | 1014.9 |
| 20260507135706 | 27 | 267 | 8.0 | 14.5 | 0.00 | 0.00 | 0.00 | 69 | 1014.9 |
| 20260507135206 | 27 | 188 | 8.0 | 14.5 | 0.00 | 0.00 | 0.00 | 68 | 1014.9 |
| 20260507134935 | 27 | 246 | 8.0 | 16.1 | 0.00 | 0.00 | 0.00 | 71 | 1014.9 |
| 20260507134204 | 27 | 234 | 8.0 | 16.1 | 0.00 | 0.00 | 0.00 | 71 | 1014.9 |
| 20260507133704 | 26 | 225 | 6.4 | 16.1 | 0.00 | 0.00 | 0.00 | 72 | 1014.8 |
| 20260507133202 | 26 | 173 | 6.4 | 11.3 | 0.00 | 0.00 | 0.00 | 74 | 1014.9 |
| 20260507132702 | 26 | 179 | 8.0 | 11.3 | 0.00 | 0.00 | 0.00 | 74 | 1014.9 |
| 20260507132202 | 26 | 209 | 6.4 | 11.3 | 0.00 | 0.00 | 0.00 | 75 | 1014.8 |
| 20260507131659 | 26 | 236 | 6.4 | 11.3 | 0.00 | 0.00 | 0.00 | 75 | 1014.9 |
| 20260507131158 | 26 | 230 | 6.4 | 11.3 | 0.00 | 0.00 | 0.00 | 76 | 1015.0 |
| 20260507130656 | 26 | 222 | 4.8 | 11.3 | 0.00 | 0.00 | 0.00 | 77 | 1014.9 |
| 20260507130155 | 25 | 150 | 4.8 | 9.7 | 0.00 | 0.00 | 0.00 | 77 | 1014.9 |
| 20260507125655 | 25 | 181 | 4.8 | 8.0 | 0.00 | 0.00 | 0.00 | 80 | 1014.9 |
| 20260507125651 | 25 | 220 | 4.8 | 8.0 | 0.00 | 0.00 | 0.00 | 79 | 1014.9 |
| 20260507124652 | 25 | 240 | 3.2 | 6.4 | 0.00 | 0.00 | 0.00 | 80 | 1014.9 |
| 20260507124146 | 25 | 226 | 3.2 | 9.7 | 0.00 | 0.00 | 0.00 | 80 | 1014.9 |
| 20260507123645 | 25 | 171 | 1.6 | 9.7 | 0.00 | 0.00 | 0.00 | 81 | 1015.0 |
| 20260507123138 | 24 | 151 | 1.6 | 6.4 | 0.00 | 0.00 | 0.00 | 83 | 1015.1 |
| 20260507122635 | 24 | 146 | 3.2 | 4.8 | 0.00 | 0.00 | 0.00 | 82 | 1014.9 |
| 20260507122405 | 24 | 158 | 1.6 | 4.8 | 0.00 | 0.00 | 0.00 | 83 | 1014.9 |
| 20260507121633 | 24 | 158 | 1.6 | 4.8 | 0.00 | 0.00 | 0.00 | 83 | 1014.9 |
| 20260507121142 | 23 | 162 | 0.0 | 3.2 | 0.00 | 0.00 | 0.00 | 83 | 1014.9 |
| 20260507120624 | 23 | 128 | 0.0 | 3.2 | 0.00 | 0.00 | 0.00 | 84 | 1015.0 |
| 20260507120346 | 23 | 119 | 0.0 | 3.2 | 0.00 | 0.00 | 0.00 | 84 | 1014.9 |
| 20260507115542 | 23 | 282 | 0.0 | 1.6 | 0.00 | 0.00 | 0.00 | 84 | 1014.9 |
| 20260507115039 | 23 | 283 | 0.0 | 0.0 | 0.00 | 0.00 | 0.00 | 86 | 1014.9 |
| 20260507114534 | 23 | 283 | 0.0 | 0.0 | 0.00 | 0.00 | 0.00 | 89 | 1014.8 |
| 20260507114020 | 22 | 283 | 0.0 | 0.0 | 0.00 | 0.00 | 0.00 | 91 | 1014.8 |
| 20260507113448 | 22 | 283 | 0.0 | 0.0 | 0.00 | 0.00 | 0.00 | 91 | 1014.7 |
| 20260507112938 | 21 | 283 | 0.0 | 0.0 | 0.00 | 0.00 | 0.00 | 92 | 1014.8 |
| 20260507112434 | 21 | 283 | 0.0 | 0.0 | 0.00 | 0.00 | 0.00 | 92 | 1014.8 |
| 20260507111901 | 20 | 283 | 0.0 | 0.0 | 0.00 | 0.00 | 0.00 | 92 | 1014.9 |
| 20260507111347 | 20 | 283 | 0.0 | 1.6 | 0.00 | 0.00 | 0.00 | 92 | 1014.8 |
| 20260507110900 | 20 | 283 | 0.0 | 1.6 | 0.00 | 0.00 | 0.00 | 92 | 1014.6 |
| 20260507110348 | 20 | 283 | 0.0 | 0.0 | 0.00 | 0.00 | 0.00 | 92 | 1014.6 |
| 20260507105843 | 20 | 283 | 0.0 | 0.0 | 0.00 | 0.00 | 0.00 | 92 | 1014.5 |
| 20260507105343 | 20 | 283 | 0.0 | 0.0 | 0.00 | 0.00 | 0.00 | 91 | 1014.4 |
| 20260507104843 | 20 | 283 | 0.0 | 0.0 | 0.00 | 0.00 | 0.00 | 91 | 1014.3 |
| 20260507104327 | 20 | 283 | 0.0 | 0.0 | 0.00 | 0.00 | 0.00 | 91 | 1014.2 |
| 20260507103752 | 20 | 283 | 0.0 | 0.0 | 0.00 | 0.00 | 0.00 | 91 | 1014.1 |
| 20260507103243 | 20 | 283 | 0.0 | 0.0 | 0.00 | 0.00 | 0.00 | 91 | 1014.0 |
| 20260507102727 | 20 | 283 | 0.0 | 0.0 | 0.00 | 0.00 | 0.00 | 91 | 1013.9 |
| 20260507102211 | 20 | 283 | 0.0 | 0.0 | 0.00 | 0.00 | 0.00 | 91 | 1013.8 |
| 20260507101717 | 20 | 283 | 0.0 | 3.2 | 0.00 | 0.00 | 0.00 | 91 | 1013.6 |
| 20260507101713 | 20 | 283 | 0.0 | 3.2 | 0.00 | 0.00 | 0.00 | 90 | 1013.7 |
| 20260507100709 | 20 | 287 | 1.6 | 4.8 | 0.00 | 0.00 | 0.00 | 91 | 1013.6 |
| 20260507100441 | 20 | 284 | 1.6 | 4.8 | 0.00 | 0.00 | 0.00 | 90 | 1013.7 |
| 20260507095707 | 20 | 292 | 3.2 | 8.0 | 0.00 | 0.00 | 0.00 | 90 | 1013.4 |
| 20260507095156 | 20 | 273 | 3.2 | 8.0 | 0.00 | 0.00 | 0.00 | 90 | 1013.4 |
| 20260507094643 | 21 | 277 | 3.2 | 9.7 | 0.00 | 0.00 | 0.00 | 90 | 1013.3 |
| 20260507094135 | 21 | 282 | 4.8 | 14.5 | 0.00 | 0.00 | 0.00 | 90 | 1013.4 |
| 20260507093635 | 21 | 290 | 3.2 | 14.5 | 0.00 | 0.00 | 0.00 | 89 | 1013.3 |
| 20260507093139 | 21 | 219 | 3.2 | 4.8 | 0.00 | 0.00 | 0.00 | 90 | 1013.1 |
| 20260507093135 | 21 | 134 | 1.6 | 4.8 | 0.00 | 0.00 | 0.00 | 90 | 1013.1 |
| 20260507092133 | 21 | 162 | 3.2 | 4.8 | 0.00 | 0.00 | 0.00 | 90 | 1012.9 |
| 20260507091631 | 21 | 92 | 3.2 | 6.4 | 0.00 | 0.00 | 0.00 | 90 | 1012.7 |
| 20260507091131 | 21 | 113 | 4.8 | 6.4 | 0.00 | 0.00 | 0.00 | 91 | 1012.7 |
| 20260507090631 | 21 | 129 | 4.8 | 6.4 | 0.00 | 0.00 | 0.00 | 91 | 1012.8 |
| 20260507090126 | 21 | 117 | 3.2 | 6.4 | 0.00 | 0.00 | 0.00 | 91 | 1012.8 |
| 20260507085857 | 21 | 121 | 3.2 | 4.8 | 0.00 | 0.00 | 0.00 | 91 | 1012.9 |
| 20260507085127 | 21 | 123 | 3.2 | 4.8 | 0.00 | 0.00 | 0.00 | 91 | 1012.9 |
| 20260507084618 | 21 | 130 | 1.6 | 4.8 | 0.00 | 0.00 | 0.00 | 90 | 1013.1 |
| 20260507084120 | 21 | 136 | 1.6 | 3.2 | 0.00 | 0.00 | 0.00 | 90 | 1013.0 |
| 20260507083620 | 21 | 120 | 1.6 | 1.6 | 0.00 | 0.00 | 0.00 | 90 | 1013.0 |
| 20260507083109 | 21 | 115 | 1.6 | 1.6 | 0.00 | 0.00 | 0.00 | 91 | 1013.0 |
| 20260507082602 | 21 | 115 | 0.0 | 1.6 | 0.00 | 0.00 | 0.00 | 90 | 1013.0 |
| 20260507082053 | 21 | 115 | 0.0 | 1.6 | 0.00 | 0.00 | 0.00 | 91 | 1013.0 |
| 20260507081546 | 21 | 115 | 0.0 | 1.6 | 0.00 | 0.00 | 0.00 | 91 | 1013.0 |
| 20260507081043 | 21 | 115 | 0.0 | 1.6 | 0.00 | 0.00 | 0.00 | 91 | 1012.9 |
| 20260507080531 | 21 | 115 | 0.0 | 1.6 | 0.00 | 0.00 | 0.00 | 91 | 1012.9 |
| 20260507080030 | 21 | 115 | 0.0 | 1.6 | 0.00 | 0.00 | 0.00 | 91 | 1012.8 |
| 20260507075519 | 21 | 115 | 0.0 | 3.2 | 0.00 | 0.00 | 0.00 | 91 | 1012.9 |
| 20260507075015 | 21 | 115 | 1.6 | 3.2 | 0.00 | 0.00 | 0.00 | 91 | 1012.8 |
| 20260507074447 | 21 | 110 | 1.6 | 3.2 | 0.00 | 0.00 | 0.00 | 91 | 1012.8 |
| 20260507073939 | 21 | 119 | 1.6 | 3.2 | 0.00 | 0.00 | 0.00 | 91 | 1012.8 |
| 20260507073439 | 21 | 119 | 1.6 | 3.2 | 0.00 | 0.00 | 0.00 | 91 | 1012.8 |
| 20260507073200 | 21 | 119 | 0.0 | 1.6 | 0.00 | 0.00 | 0.00 | 91 | 1012.9 |
| 20260507072428 | 21 | 138 | 0.0 | 1.6 | 0.00 | 0.00 | 0.00 | 91 | 1013.1 |
| 20260507071851 | 21 | 140 | 0.0 | 1.6 | 0.00 | 0.00 | 0.00 | 91 | 1013.2 |
| 20260507071346 | 21 | 232 | 0.0 | 0.0 | 0.00 | 0.00 | 0.00 | 91 | 1013.2 |
| 20260507070854 | 21 | 232 | 0.0 | 0.0 | 0.00 | 0.00 | 0.00 | 91 | 1013.4 |
| 20260507070340 | 21 | 232 | 0.0 | 0.0 | 0.00 | 0.00 | 0.00 | 90 | 1013.5 |
| 20260507065838 | 21 | 232 | 0.0 | 0.0 | 0.00 | 0.00 | 0.00 | 91 | 1013.5 |
| 20260507065320 | 21 | 232 | 0.0 | 0.0 | 0.00 | 0.00 | 0.00 | 90 | 1013.5 |
| 20260507064820 | 21 | 232 | 0.0 | 1.6 | 0.00 | 0.00 | 0.00 | 90 | 1013.6 |
| 20260507064300 | 21 | 232 | 0.0 | 1.6 | 0.00 | 0.00 | 0.00 | 90 | 1013.6 |
| 20260507063752 | 21 | 232 | 0.0 | 1.6 | 0.00 | 0.00 | 0.00 | 90 | 1013.7 |
| 20260507063245 | 21 | 232 | 0.0 | 1.6 | 0.00 | 0.00 | 0.00 | 90 | 1013.8 |
| 20260507062743 | 21 | 232 | 0.0 | 1.6 | 0.00 | 0.00 | 0.00 | 90 | 1013.9 |
| 20260507062241 | 21 | 171 | 0.0 | 1.6 | 0.00 | 0.00 | 0.00 | 90 | 1013.8 |
| 20260507061734 | 21 | 175 | 0.0 | 1.6 | 0.00 | 0.00 | 0.00 | 90 | 1013.9 |
| 20260507061203 | 21 | 175 | 0.0 | 1.6 | 0.00 | 0.00 | 0.00 | 90 | 1014.0 |
| 20260507060918 | 21 | 175 | 0.0 | 1.6 | 0.00 | 0.00 | 0.00 | 90 | 1014.1 |
| 20260507060146 | 21 | 170 | 0.0 | 0.0 | 0.00 | 0.00 | 0.00 | 90 | 1014.3 |
| 20260507055644 | 21 | 170 | 0.0 | 0.0 | 0.00 | 0.00 | 0.00 | 90 | 1014.3 |
| 20260507055144 | 21 | 170 | 0.0 | 1.6 | 0.00 | 0.00 | 0.00 | 90 | 1014.3 |
| 20260507054645 | 21 | 170 | 0.0 | 1.6 | 0.00 | 0.00 | 0.00 | 90 | 1014.3 |
| 20260507054144 | 21 | 170 | 0.0 | 1.6 | 0.00 | 0.00 | 0.00 | 89 | 1014.4 |
| 20260507053643 | 21 | 170 | 0.0 | 0.0 | 0.00 | 0.00 | 0.00 | 89 | 1014.5 |
| 20260507053138 | 21 | 169 | 0.0 | 3.2 | 0.00 | 0.00 | 0.00 | 89 | 1014.6 |
| 20260507052635 | 21 | 169 | 1.6 | 3.2 | 0.00 | 0.00 | 0.00 | 89 | 1014.5 |
| 20260507052134 | 21 | 156 | 1.6 | 3.2 | 0.00 | 0.00 | 0.00 | 89 | 1014.4 |
| 20260507051628 | 21 | 143 | 1.6 | 3.2 | 0.00 | 0.00 | 0.00 | 89 | 1014.6 |
| 20260507051124 | 21 | 138 | 1.6 | 4.8 | 0.00 | 0.00 | 0.00 | 88 | 1014.5 |
| 20260507050618 | 21 | 131 | 3.2 | 4.8 | 0.00 | 0.00 | 0.00 | 88 | 1014.5 |
| 20260507050118 | 21 | 164 | 1.6 | 4.8 | 0.00 | 0.00 | 0.00 | 87 | 1014.7 |
| 20260507045618 | 21 | 267 | 1.6 | 3.2 | 0.00 | 0.00 | 0.00 | 87 | 1014.7 |
| 20260507045112 | 21 | 242 | 1.6 | 3.2 | 0.00 | 0.00 | 0.00 | 87 | 1014.8 |
| 20260507044602 | 22 | 255 | 1.6 | 4.8 | 0.00 | 0.00 | 0.00 | 87 | 1014.9 |
| 20260507044333 | 22 | 270 | 1.6 | 4.8 | 0.00 | 0.00 | 0.00 | 86 | 1014.8 |
| 20260507043548 | 22 | 243 | 1.6 | 3.2 | 0.00 | 0.00 | 0.00 | 86 | 1014.7 |
| 20260507043048 | 22 | 176 | 1.6 | 4.8 | 0.00 | 0.00 | 0.00 | 86 | 1014.6 |
| 20260507042819 | 22 | 134 | 3.2 | 4.8 | 0.00 | 0.00 | 0.00 | 85 | 1014.5 |
| 20260507042049 | 22 | 140 | 1.6 | 4.8 | 0.00 | 0.00 | 0.00 | 85 | 1014.7 |
| 20260507041546 | 22 | 128 | 0.0 | 3.2 | 0.00 | 0.00 | 0.00 | 85 | 1014.8 |
| 20260507041044 | 22 | 121 | 1.6 | 3.2 | 0.00 | 0.00 | 0.00 | 85 | 1014.7 |
| 20260507040545 | 22 | 164 | 1.6 | 3.2 | 0.00 | 0.00 | 0.00 | 85 | 1014.6 |
| 20260507040058 | 22 | 141 | 1.6 | 3.2 | 0.00 | 0.00 | 0.00 | 84 | 1014.5 |
| 20260507035542 | 23 | 144 | 1.6 | 4.8 | 0.00 | 0.00 | 0.00 | 83 | 1014.4 |
| 20260507035037 | 23 | 142 | 3.2 | 4.8 | 0.00 | 0.00 | 0.00 | 83 | 1014.5 |
| 20260507034534 | 23 | 147 | 3.2 | 4.8 | 0.00 | 0.00 | 0.00 | 82 | 1014.4 |
| 20260507034033 | 23 | 137 | 3.2 | 4.8 | 0.00 | 0.00 | 0.00 | 82 | 1014.5 |
| 20260507033533 | 23 | 151 | 3.2 | 4.8 | 0.00 | 0.00 | 0.00 | 82 | 1014.4 |
| 20260507033304 | 23 | 125 | 3.2 | 4.8 | 0.00 | 0.00 | 0.00 | 82 | 1014.4 |
| 20260507032532 | 23 | 126 | 3.2 | 4.8 | 0.00 | 0.00 | 0.00 | 81 | 1014.4 |
| 20260507032253 | 23 | 137 | 3.2 | 6.4 | 0.00 | 0.00 | 0.00 | 81 | 1014.4 |
| 20260507031521 | 23 | 128 | 3.2 | 6.4 | 0.00 | 0.00 | 0.00 | 81 | 1014.5 |
| 20260507031019 | 23 | 123 | 4.8 | 6.4 | 0.00 | 0.00 | 0.00 | 80 | 1014.5 |
| 20260507030752 | 23 | 143 | 4.8 | 8.0 | 0.00 | 0.00 | 0.00 | 80 | 1014.5 |
| 20260507030014 | 23 | 133 | 3.2 | 8.0 | 0.00 | 0.00 | 0.00 | 80 | 1014.6 |
| 20260507025510 | 23 | 123 | 3.2 | 6.4 | 0.00 | 0.00 | 0.00 | 79 | 1014.6 |
| 20260507025010 | 24 | 131 | 4.8 | 8.0 | 0.00 | 0.00 | 0.00 | 79 | 1014.6 |
| 20260507024510 | 24 | 111 | 3.2 | 8.0 | 0.00 | 0.00 | 0.00 | 78 | 1014.7 |
| 20260507024008 | 24 | 133 | 3.2 | 6.4 | 0.00 | 0.00 | 0.00 | 79 | 1014.7 |
| 20260507023508 | 24 | 112 | 3.2 | 4.8 | 0.00 | 0.00 | 0.00 | 78 | 1014.7 |
| 20260507023006 | 24 | 131 | 3.2 | 4.8 | 0.00 | 0.00 | 0.00 | 78 | 1014.7 |
| 20260507022504 | 24 | 132 | 3.2 | 4.8 | 0.00 | 0.00 | 0.00 | 77 | 1014.8 |
| 20260507022004 | 25 | 149 | 3.2 | 6.4 | 0.00 | 0.00 | 0.00 | 77 | 1014.7 |
| 20260507021504 | 25 | 137 | 4.8 | 6.4 | 0.00 | 0.00 | 0.00 | 75 | 1014.7 |
| 20260507021233 | 25 | 133 | 4.8 | 6.4 | 0.00 | 0.00 | 0.00 | 74 | 1014.7 |
| 20260507020734 | 25 | 118 | 4.8 | 8.0 | 0.00 | 0.00 | 0.00 | 74 | 1014.5 |
| 20260507020002 | 25 | 109 | 4.8 | 8.0 | 0.00 | 0.00 | 0.00 | 74 | 1014.6 |
| 20260507015458 | 25 | 123 | 3.2 | 4.8 | 0.00 | 0.00 | 0.00 | 74 | 1014.5 |
| 20260507015229 | 25 | 121 | 3.2 | 6.4 | 0.00 | 0.00 | 0.00 | 73 | 1014.5 |
| 20260507014459 | 25 | 116 | 4.8 | 6.4 | 0.00 | 0.00 | 0.00 | 73 | 1014.5 |
| 20260507013958 | 25 | 119 | 4.8 | 8.0 | 0.00 | 0.00 | 0.00 | 72 | 1014.5 |
| 20260507013456 | 25 | 97 | 4.8 | 9.7 | 0.00 | 0.00 | 0.00 | 72 | 1014.5 |
| 20260507012955 | 25 | 123 | 3.2 | 9.7 | 0.00 | 0.00 | 0.00 | 72 | 1014.5 |
| 20260507012454 | 25 | 126 | 3.2 | 8.0 | 0.00 | 0.00 | 0.00 | 72 | 1014.3 |
| 20260507012224 | 25 | 117 | 4.8 | 8.0 | 0.00 | 0.00 | 0.00 | 72 | 1014.4 |
| 20260507011501 | 25 | 113 | 3.2 | 8.0 | 0.00 | 0.00 | 0.00 | 71 | 1014.4 |
| 20260507011446 | 25 | 118 | 3.2 | 6.4 | 0.00 | 0.00 | 0.00 | 71 | 1014.3 |
| 20260507010717 | 25 | 108 | 4.8 | 11.3 | 0.00 | 0.00 | 0.00 | 71 | 1014.4 |
| 20260507005946 | 25 | 126 | 4.8 | 11.3 | 0.00 | 0.00 | 0.00 | 70 | 1014.4 |
| 20260507005716 | 25 | 104 | 6.4 | 9.7 | 0.00 | 0.00 | 0.00 | 70 | 1014.4 |
| 20260507004943 | 25 | 125 | 6.4 | 14.5 | 0.00 | 0.00 | 0.00 | 70 | 1014.3 |
| 20260507004438 | 25 | 120 | 4.8 | 14.5 | 0.00 | 0.00 | 0.00 | 69 | 1014.3 |
| 20260507003937 | 25 | 114 | 6.4 | 16.1 | 0.00 | 0.00 | 0.00 | 68 | 1014.2 |
| 20260507003708 | 25 | 111 | 6.4 | 16.1 | 0.00 | 0.00 | 0.00 | 68 | 1014.3 |
| 20260507002933 | 26 | 109 | 6.4 | 14.5 | 0.00 | 0.00 | 0.00 | 68 | 1014.2 |
| 20260507002430 | 26 | 96 | 6.4 | 16.1 | 0.00 | 0.00 | 0.00 | 67 | 1014.2 |
| 20260507001925 | 26 | 109 | 6.4 | 16.1 | 0.00 | 0.00 | 0.00 | 67 | 1014.2 |
| 20260507001418 | 26 | 114 | 6.4 | 16.1 | 0.00 | 0.00 | 0.00 | 67 | 1014.3 |
| 20260507001147 | 26 | 115 | 6.4 | 16.1 | 0.00 | 0.00 | 0.00 | 66 | 1014.2 |
| 20260507000412 | 26 | 92 | 6.4 | 16.1 | 0.00 | 0.00 | 0.00 | 65 | 1014.2 |
| 20260507000142 | 26 | 118 | 8.0 | 16.1 | 0.00 | 0.00 | 0.00 | 64 | 1014.2 |
| 20260506235410 | 26 | 112 | 6.4 | 11.3 | 0.00 | 0.00 | 0.00 | 63 | 1014.1 |
| 20260506235142 | 26 | 104 | 6.4 | 14.5 | 0.00 | 0.00 | 0.00 | 62 | 1014.0 |
| 20260506234410 | 26 | 98 | 6.4 | 14.5 | 0.00 | 0.00 | 0.00 | 62 | 1014.1 |
| 20260506233907 | 27 | 113 | 8.0 | 17.7 | 0.00 | 0.00 | 0.00 | 60 | 1014.2 |
| 20260506233405 | 27 | 117 | 8.0 | 17.7 | 0.00 | 0.00 | 0.00 | 59 | 1014.1 |
| 20260506232906 | 27 | 97 | 6.4 | 16.1 | 0.00 | 0.00 | 0.00 | 58 | 1014.1 |
| 20260506232405 | 27 | 113 | 8.0 | 16.1 | 0.00 | 0.00 | 0.00 | 58 | 1014.2 |
| 20260506231904 | 27 | 109 | 8.0 | 16.1 | 0.00 | 0.00 | 0.00 | 56 | 1014.1 |
| 20260506231404 | 28 | 111 | 9.7 | 17.7 | 0.00 | 0.00 | 0.00 | 54 | 1014.2 |
| 20260506231144 | 27 | 88 | 11.3 | 19.3 | 0.00 | 0.00 | 0.00 | 54 | 1014.2 |
| 20260506230402 | 28 | 116 | 11.3 | 19.3 | 0.00 | 0.00 | 0.00 | 54 | 1014.2 |
| 20260506225901 | 28 | 107 | 9.7 | 20.9 | 0.00 | 0.00 | 0.00 | 53 | 1014.2 |
| 20260506225401 | 28 | 132 | 9.7 | 20.9 | 0.00 | 0.00 | 0.00 | 53 | 1014.2 |
| 20260506224900 | 28 | 112 | 9.7 | 20.9 | 0.00 | 0.00 | 0.00 | 51 | 1014.1 |
| 20260506224357 | 28 | 105 | 9.7 | 19.3 | 0.00 | 0.00 | 0.00 | 53 | 1014.1 |
| 20260506223855 | 28 | 113 | 11.3 | 19.3 | 0.00 | 0.00 | 0.00 | 52 | 1014.0 |
| 20260506223353 | 28 | 108 | 9.7 | 17.7 | 0.00 | 0.00 | 0.00 | 50 | 1014.0 |
| 20260506222853 | 28 | 116 | 8.0 | 17.7 | 0.00 | 0.00 | 0.00 | 51 | 1014.1 |
| 20260506222345 | 28 | 112 | 9.7 | 19.3 | 0.00 | 0.00 | 0.00 | 47 | 1014.0 |
| 20260506221846 | 29 | 122 | 9.7 | 20.9 | 0.00 | 0.00 | 0.00 | 48 | 1014.0 |
| 20260506221346 | 29 | 75 | 8.0 | 20.9 | 0.00 | 0.00 | 0.00 | 48 | 1014.0 |
| 20260506221113 | 29 | 80 | 9.7 | 22.5 | 0.00 | 0.00 | 0.00 | 47 | 1013.9 |
| 20260506220340 | 29 | 92 | 11.3 | 24.1 | 0.00 | 0.00 | 0.00 | 48 | 1013.9 |
| 20260506215839 | 29 | 105 | 8.0 | 24.1 | 0.00 | 0.00 | 0.00 | 47 | 1013.9 |
| 20260506215334 | 30 | 105 | 8.0 | 17.7 | 0.00 | 0.00 | 0.00 | 47 | 1013.9 |
| 20260506215105 | 30 | 105 | 8.0 | 19.3 | 0.00 | 0.00 | 0.00 | 48 | 1013.9 |
| 20260506214604 | 30 | 112 | 8.0 | 19.3 | 0.00 | 0.00 | 0.00 | 49 | 1013.9 |
| 20260506213833 | 30 | 109 | 6.4 | 16.1 | 0.00 | 0.00 | 0.00 | 48 | 1013.8 |
| 20260506213333 | 30 | 87 | 8.0 | 17.7 | 0.00 | 0.00 | 0.00 | 47 | 1013.8 |
| 20260506212829 | 30 | 108 | 11.3 | 24.1 | 0.00 | 0.00 | 0.00 | 49 | 1013.8 |
| 20260506212329 | 30 | 113 | 11.3 | 24.1 | 0.00 | 0.00 | 0.00 | 46 | 1013.8 |
| 20260506211825 | 30 | 123 | 8.0 | 22.5 | 0.00 | 0.00 | 0.00 | 43 | 1013.8 |
| 20260506211323 | 30 | 89 | 9.7 | 17.7 | 0.00 | 0.00 | 0.00 | 46 | 1013.8 |
| 20260506210819 | 30 | 117 | 9.7 | 20.9 | 0.00 | 0.00 | 0.00 | 44 | 1013.9 |
| 20260506210318 | 30 | 130 | 9.7 | 22.5 | 0.00 | 0.00 | 0.00 | 38 | 1013.9 |
| 20260506205815 | 30 | 80 | 8.0 | 22.5 | 0.00 | 0.00 | 0.00 | 41 | 1013.9 |
| 20260506205314 | 30 | 92 | 6.4 | 17.7 | 0.00 | 0.00 | 0.00 | 44 | 1013.8 |
| 20260506205045 | 30 | 93 | 9.7 | 20.9 | 0.00 | 0.00 | 0.00 | 42 | 1013.8 |
| 20260506204313 | 30 | 91 | 11.3 | 20.9 | 0.00 | 0.00 | 0.00 | 41 | 1013.8 |
| 20260506204042 | 30 | 96 | 8.0 | 17.7 | 0.00 | 0.00 | 0.00 | 40 | 1013.8 |
| 20260506203307 | 31 | 86 | 8.0 | 19.3 | 0.00 | 0.00 | 0.00 | 43 | 1013.8 |
| 20260506202805 | 30 | 133 | 9.7 | 19.3 | 0.00 | 0.00 | 0.00 | 40 | 1013.9 |
| 20260506202306 | 31 | 117 | 8.0 | 19.3 | 0.00 | 0.00 | 0.00 | 42 | 1014.0 |
| 20260506201803 | 31 | 121 | 8.0 | 19.3 | 0.00 | 0.00 | 0.00 | 39 | 1014.0 |
| 20260506201301 | 31 | 103 | 11.3 | 20.9 | 0.00 | 0.00 | 0.00 | 38 | 1014.0 |
| 20260506200759 | 31 | 122 | 11.3 | 20.9 | 0.00 | 0.00 | 0.00 | 38 | 1014.0 |
| 20260506200259 | 31 | 114 | 8.0 | 19.3 | 0.00 | 0.00 | 0.00 | 38 | 1014.0 |